FW9877 Weather Reports


Display with metric or nautical units.
time (UTC)temp
F
wind
direction
speed
MPH
gust
MPH
rain 1hr
in
rain 24hr
in
rain mn
in
humidity
%
barometer
mb
20260506174534 61 360 2.0 12.0 0.01 0.17 0.17 96 1005.5
20260506173039 61 360 3.0 11.0 0.04 0.17 0.17 96 1005.5
20260506171544 61 360 1.0 11.0 0.05 0.17 0.17 96 1005.6
20260506170033 60 360 4.0 14.0 0.06 0.17 0.17 95 1005.8
20260506164532 60 360 2.0 10.0 0.07 0.16 0.16 95 1006.0
20260506163034 60 360 3.0 9.0 0.06 0.13 0.13 96 1006.2
20260506161532 60 360 1.0 9.0 0.07 0.12 0.12 95 1006.4
20260506160031 59 360 1.0 9.0 0.07 0.11 0.11 95 1006.5
20260506154533 59 0 0.0 2.0 0.08 0.09 0.09 93 1006.8
20260506153032 58 0 0.0 1.0 0.06 0.06 0.06 92 1006.8
20260506151538 58 0 0.0 0.0 0.05 0.05 0.05 91 1006.8
20260506150032 58 0 0.0 1.0 0.04 0.04 0.04 90 1007.0
20260506144534 58 0 0.0 1.0 0.01 0.01 0.01 90 1007.2
20260506143034 58 0 0.0 1.0 0.00 0.00 0.00 89 1007.4
20260506141532 58 0 0.0 1.0 0.00 0.00 0.00 88 1007.6
20260506140034 58 0 0.0 1.0 0.00 0.00 0.00 89 1007.4
20260506134529 57 0 0.0 1.0 0.00 0.00 0.00 89 1007.2
20260506133031 57 0 0.0 1.0 0.00 0.00 0.00 90 1007.2
20260506131542 56 0 0.0 1.0 0.00 0.00 0.00 91 1007.0
20260506130030 56 0 0.0 1.0 0.00 0.00 0.00 91 1007.2
20260506124534 55 0 0.0 2.0 0.00 0.00 0.00 91 1007.2
20260506123030 55 0 0.0 1.0 0.00 0.00 0.00 92 1007.7
20260506121529 55 0 0.0 1.0 0.00 0.00 0.00 93 1008.1
20260506120033 55 0 0.0 1.0 0.00 0.00 0.00 93 1008.0
20260506114538 54 360 0.0 2.0 0.00 0.00 0.00 93 1007.7
20260506113031 54 0 0.0 2.0 0.00 0.00 0.00 93 1007.7
20260506111530 54 0 0.0 1.0 0.00 0.00 0.00 93 1007.7
20260506110034 54 0 0.0 0.0 0.00 0.00 0.00 93 1007.2
20260506104537 53 0 0.0 1.0 0.00 0.00 0.00 93 1007.4
20260506103034 53 0 0.0 2.0 0.00 0.00 0.00 92 1007.4
20260506101533 53 0 0.0 1.0 0.00 0.00 0.00 92 1007.2
20260506100032 53 0 0.0 2.0 0.00 0.00 0.00 92 1007.1
20260506094532 53 0 0.0 1.0 0.00 0.00 0.00 90 1007.3
20260506093033 54 0 0.0 0.0 0.00 0.00 0.00 89 1007.0
20260506091533 54 0 0.0 0.0 0.00 0.00 0.00 90 1007.1
20260506090032 54 0 0.0 0.0 0.00 0.00 0.00 90 1007.1
20260506084539 54 0 0.0 2.0 0.00 0.00 0.00 90 1007.4
20260506083032 55 360 0.0 3.0 0.00 0.00 0.00 90 1007.6
20260506081529 55 0 0.0 4.0 0.00 0.00 0.00 89 1007.6
20260506073032 56 0 0.0 0.0 0.00 0.00 0.00 87 1008.1
20260506071532 57 0 0.0 0.0 0.00 0.00 0.00 87 1008.1
20260506061532 58 0 0.0 0.0 0.00 0.00 0.00 84 1008.7
20260506044540 60 360 0.0 3.0 0.00 0.00 0.00 81 1008.8
20260506043035 60 0 0.0 2.0 0.00 0.00 0.00 81 1009.0
20260506041535 61 360 1.0 6.0 0.00 0.00 0.00 83 1008.8
20260506040034 61 360 1.0 4.0 0.00 0.00 0.00 86 1008.7
20260506034533 62 360 0.0 2.0 0.00 0.00 0.00 86 1008.5
20260506033035 62 360 0.0 2.0 0.00 0.00 0.00 85 1007.9
20260506031537 62 360 0.0 4.0 0.00 0.00 0.00 86 1007.4
20260506030055 62 0 0.0 2.0 0.00 0.00 0.00 85 1007.9
20260506024549 63 0 0.0 0.0 0.00 0.00 0.00 85 1007.3
20260506023030 63 0 0.0 0.0 0.00 0.00 0.00 84 1007.3
20260506021532 63 0 0.0 0.0 0.00 0.00 0.00 83 1007.2
20260506020033 63 0 0.0 1.0 0.00 0.00 0.00 82 1007.4
20260506014539 63 86 0.0 2.0 0.00 0.00 0.00 81 1007.5
20260506013035 64 0 0.0 0.0 0.00 0.00 0.00 81 1007.5
20260506011537 64 0 0.0 0.0 0.00 0.00 0.00 80 1007.5
20260506010031 64 0 0.0 0.0 0.00 0.00 0.00 80 1007.3
20260506004544 64 0 0.0 0.0 0.00 0.00 0.00 79 1007.0
20260506003039 64 145 0.0 3.0 0.00 0.00 0.00 79 1006.6
20260506001531 65 111 1.0 4.0 0.00 0.00 0.00 78 1006.4
20260506000030 65 0 0.0 5.0 0.00 0.00 0.00 77 1006.5
20260505234534 65 360 0.0 8.0 0.00 0.00 0.00 77 1006.6
20260505233032 66 86 1.0 5.0 0.00 0.00 0.00 76 1006.1
20260505231533 66 162 1.0 5.0 0.00 0.00 0.00 76 1006.1
20260505230042 67 70 2.0 6.0 0.00 0.00 0.00 74 1006.0
20260505224535 69 360 0.0 2.0 0.00 0.00 0.00 70 1006.1
20260505223029 71 360 1.0 5.0 0.00 0.00 0.00 66 1006.4
20260505221532 73 360 1.0 5.0 0.00 0.00 0.00 60 1006.8
20260505220040 76 360 3.0 11.0 0.00 0.00 0.00 50 1005.5
20260505214535 78 360 1.0 8.0 0.00 0.00 0.00 40 1004.5
20260505213035 78 360 2.0 11.0 0.00 0.00 0.00 40 1003.9
20260505211534 79 303 4.0 13.0 0.00 0.00 0.00 38 1003.5
20260505210031 79 192 5.0 21.0 0.00 0.00 0.00 40 1003.3
20260505204535 79 296 3.0 13.0 0.00 0.00 0.00 40 1003.2
20260505203037 80 288 3.0 18.0 0.00 0.00 0.00 41 1003.1
20260505201535 81 169 4.0 13.0 0.00 0.00 0.00 37 1003.7
20260505200033 82 300 7.0 22.0 0.00 0.00 0.00 37 1003.5
20260505194533 82 287 4.0 21.0 0.00 0.00 0.00 40 1003.4
20260505193035 81 312 6.0 22.0 0.00 0.00 0.00 39 1003.5
20260505191539 80 265 4.0 15.0 0.00 0.00 0.00 40 1003.8
20260505190038 82 105 4.0 17.0 0.00 0.00 0.00 39 1003.9
20260505184533 83 212 3.0 19.0 0.00 0.00 0.00 40 1004.0
20260505183030 82 309 5.0 18.0 0.00 0.00 0.00 39 1004.2
20260505181534 82 248 5.0 17.0 0.00 0.00 0.00 45 1004.3
20260505180038 82 360 5.0 13.0 0.00 0.00 0.00 39 1004.4